Location: Brachbach
(49.1847°N, 9.7240°E)
Time: 10:27:45
(UTC+00:00)

COSMOS 860 DEB - Pass Details

Date: 08 October 2024
Orbit: 890 x 988 km, 64.7° (Epoch: 09 November)

Event Time Altitude Azimuth Distance (km) Brightness Sun altitude
Rises 19:44:25 0° 320° (NW) 3,661 ? -29.5°
Reaches altitude 10° 19:46:59 10° 321° (NW) 2,723 ? -29.8°
Enters shadow 19:53:00 77° 358° (N) 1,011 ? -30.7°
